FW4301 Weather Reports


Display with metric or nautical units.
time (UTC)temp
F
wind
direction
speed
MPH
gust
MPH
rain 1hr
in
rain 24hr
in
rain mn
in
humidity
%
barometer
mb
20260906200529 107 0 0.0 0.0 0.00 0.00 0.00 26 1012.3
20260906200100 107 0 0.0 0.0 0.00 0.00 0.00 25 1012.4
20260906195528 107 0 0.0 0.0 0.00 0.00 0.00 28 1012.3
20260906195029 108 0 0.0 0.0 0.00 0.00 0.00 25 1012.4
20260906194550 108 0 0.0 0.0 0.00 0.00 0.00 25 1012.6
20260906194029 108 0 0.0 0.0 0.00 0.00 0.00 24 1012.5
20260906193529 108 0 0.0 0.0 0.00 0.00 0.00 26 1012.5
20260906193059 109 0 0.0 0.0 0.00 0.00 0.00 25 1012.6
20260906192529 109 0 0.0 0.0 0.00 0.00 0.00 23 1012.8
20260906192029 110 0 0.0 0.0 0.00 0.00 0.00 23 1012.8
20260906191557 110 0 0.0 0.0 0.00 0.00 0.00 25 1012.8
20260906191029 109 0 0.0 0.0 0.00 0.00 0.00 26 1012.8
20260906190529 109 0 0.0 0.0 0.00 0.00 0.00 26 1012.8
20260906190111 110 0 0.0 0.0 0.00 0.00 0.00 23 1012.9
20260906185529 110 0 0.0 0.0 0.00 0.00 0.00 26 1013.0
20260906185029 109 0 0.0 0.0 0.00 0.00 0.00 27 1013.0
20260906184554 109 0 0.0 0.0 0.00 0.00 0.00 27 1013.1
20260906184028 108 0 0.0 0.0 0.00 0.00 0.00 28 1013.3
20260906183531 107 0 0.0 0.0 0.00 0.00 0.00 29 1013.3
20260906183050 107 0 0.0 0.0 0.00 0.00 0.00 27 1013.3
20260906182529 107 0 0.0 0.0 0.00 0.00 0.00 29 1013.3
20260906182029 106 0 0.0 0.0 0.00 0.00 0.00 30 1013.4
20260906181550 105 0 0.0 0.0 0.00 0.00 0.00 32 1013.4
20260906181028 105 0 0.0 1.0 0.00 0.00 0.00 26 1013.5
20260906180529 106 0 0.0 1.0 0.00 0.00 0.00 28 1013.5
20260906175529 105 0 0.0 0.0 0.00 0.00 0.00 31 1013.7
20260906175031 105 0 0.0 0.0 0.00 0.00 0.00 29 1013.8
20260906174554 104 0 0.0 0.0 0.00 0.00 0.00 31 1013.9
20260906174029 104 0 0.0 0.0 0.00 0.00 0.00 33 1013.9
20260906173528 104 0 0.0 0.0 0.00 0.00 0.00 30 1014.0
20260906173052 104 0 0.0 0.0 0.00 0.00 0.00 31 1014.2
20260906172529 104 0 0.0 0.0 0.00 0.00 0.00 32 1014.3
20260906172028 104 0 0.0 0.0 0.00 0.00 0.00 33 1014.4
20260906171554 103 0 0.0 0.0 0.00 0.00 0.00 34 1014.5
20260906171028 102 0 0.0 0.0 0.00 0.00 0.00 36 1014.5
20260906170529 102 0 0.0 0.0 0.00 0.00 0.00 35 1014.6
20260906170055 101 0 0.0 0.0 0.00 0.00 0.00 37 1014.6
20260906165530 101 0 0.0 0.0 0.00 0.00 0.00 37 1014.7
20260906165028 100 0 0.0 0.0 0.00 0.00 0.00 34 1014.6
20260906164557 100 0 0.0 0.0 0.00 0.00 0.00 37 1014.8
20260906164028 99 0 0.0 0.0 0.00 0.00 0.00 38 1014.7
20260906163529 99 0 0.0 0.0 0.00 0.00 0.00 38 1014.8
20260906163052 98 0 0.0 0.0 0.00 0.00 0.00 38 1014.9
20260906162529 97 0 0.0 0.0 0.00 0.00 0.00 42 1014.8
20260906162029 96 0 0.0 0.0 0.00 0.00 0.00 45 1014.7
20260906161550 95 0 0.0 0.0 0.00 0.00 0.00 47 1014.9
20260906161028 94 0 0.0 0.0 0.00 0.00 0.00 47 1014.9
20260906160531 93 0 0.0 0.0 0.00 0.00 0.00 49 1014.8
20260906160107 92 0 0.0 0.0 0.00 0.00 0.00 51 1014.9
20260906155529 91 0 0.0 0.0 0.00 0.00 0.00 53 1014.8
20260906155028 90 0 0.0 0.0 0.00 0.00 0.00 53 1014.9
20260906154557 90 0 0.0 0.0 0.00 0.00 0.00 53 1014.7
20260906154029 89 0 0.0 0.0 0.00 0.00 0.00 54 1014.7
20260906153528 88 0 0.0 0.0 0.00 0.00 0.00 55 1014.8
20260906153051 87 0 0.0 0.0 0.00 0.00 0.00 55 1014.8
20260906152533 87 0 0.0 0.0 0.00 0.00 0.00 56 1014.7
20260906152029 87 0 0.0 0.0 0.00 0.00 0.00 55 1014.6
20260906151557 86 0 0.0 0.0 0.00 0.00 0.00 56 1014.7
20260906151031 86 0 0.0 0.0 0.00 0.00 0.00 56 1014.8
20260906150529 86 0 0.0 0.0 0.00 0.00 0.00 57 1014.7
20260906150059 85 0 0.0 0.0 0.00 0.00 0.00 59 1014.7
20260906145559 85 0 0.0 0.0 0.00 0.00 0.00 58 1014.7
20260906145029 84 0 0.0 0.0 0.00 0.00 0.00 59 1014.6
20260906144553 84 0 0.0 0.0 0.00 0.00 0.00 59 1014.6
20260906144028 83 0 0.0 0.0 0.00 0.00 0.00 59 1014.7
20260906143531 83 0 0.0 0.0 0.00 0.00 0.00 59 1014.7
20260906143057 83 0 0.0 0.0 0.00 0.00 0.00 59 1014.5
20260906142528 82 0 0.0 0.0 0.00 0.00 0.00 59 1014.5
20260906142031 82 0 0.0 0.0 0.00 0.00 0.00 60 1014.5
20260906141548 81 0 0.0 0.0 0.00 0.00 0.00 60 1014.5
20260906141029 81 0 0.0 0.0 0.00 0.00 0.00 61 1014.5
20260906140529 80 0 0.0 0.0 0.00 0.00 0.00 61 1014.5
20260906140056 80 0 0.0 0.0 0.00 0.00 0.00 62 1014.4
20260906135530 79 0 0.0 0.0 0.00 0.00 0.00 63 1014.4
20260906135029 79 0 0.0 0.0 0.00 0.00 0.00 64 1014.3
20260906134558 78 0 0.0 0.0 0.00 0.00 0.00 65 1014.4
20260906134029 78 0 0.0 0.0 0.00 0.00 0.00 66 1014.3
20260906133528 77 0 0.0 0.0 0.00 0.00 0.00 66 1014.3
20260906133110 77 0 0.0 0.0 0.00 0.00 0.00 67 1014.2
20260906132529 76 0 0.0 0.0 0.00 0.00 0.00 67 1014.1
20260906132028 76 0 0.0 0.0 0.00 0.00 0.00 67 1014.2
20260906131551 75 0 0.0 0.0 0.00 0.00 0.00 67 1014.2
20260906131029 75 0 0.0 0.0 0.00 0.00 0.00 67 1014.2
20260906130529 75 0 0.0 0.0 0.00 0.00 0.00 67 1014.1
20260906130048 75 0 0.0 0.0 0.00 0.00 0.00 66 1014.0
20260906125529 74 0 0.0 0.0 0.00 0.00 0.00 66 1014.0
20260906125029 74 0 0.0 0.0 0.00 0.00 0.00 65 1014.1
20260906124554 74 0 0.0 0.0 0.00 0.00 0.00 65 1014.0
20260906124029 74 0 0.0 0.0 0.00 0.00 0.00 65 1013.9
20260906123529 74 0 0.0 0.0 0.00 0.00 0.00 65 1013.8
20260906123053 74 0 0.0 0.0 0.00 0.00 0.00 65 1013.7
20260906122529 74 0 0.0 0.0 0.00 0.00 0.00 65 1013.8
20260906122030 74 0 0.0 0.0 0.00 0.00 0.00 65 1013.6
20260906121557 74 0 0.0 0.0 0.00 0.00 0.00 65 1013.7
20260906121029 74 0 0.0 0.0 0.00 0.00 0.00 65 1013.7
20260906120530 74 0 0.0 0.0 0.00 0.00 0.00 65 1013.6
20260906120053 74 0 0.0 0.0 0.00 0.00 0.00 65 1013.6
20260906115535 74 0 0.0 0.0 0.00 0.00 0.00 65 1013.6
20260906115125 74 0 0.0 0.0 0.00 0.00 0.00 65 1013.6
20260906114605 75 0 0.0 0.0 0.00 0.00 0.00 65 1013.6
20260906114028 75 0 0.0 0.0 0.00 0.00 0.00 65 1013.7
20260906113529 75 0 0.0 0.0 0.00 0.00 0.00 65 1013.7
20260906113052 75 0 0.0 0.0 0.00 0.00 0.00 65 1013.6
20260906112530 75 0 0.0 0.0 0.00 0.00 0.00 65 1013.5
20260906112029 75 0 0.0 0.0 0.00 0.00 0.00 65 1013.4
20260906111553 75 0 0.0 0.0 0.00 0.00 0.00 65 1013.4
20260906111029 75 0 0.0 0.0 0.00 0.00 0.00 65 1013.4
20260906110529 75 0 0.0 0.0 0.00 0.00 0.00 65 1013.4
20260906110053 75 0 0.0 0.0 0.00 0.00 0.00 65 1013.3
20260906105531 75 0 0.0 0.0 0.00 0.00 0.00 65 1013.3
20260906105029 75 0 0.0 0.0 0.00 0.00 0.00 65 1013.3
20260906104614 75 0 0.0 0.0 0.00 0.00 0.00 65 1013.2
20260906104028 76 0 0.0 0.0 0.00 0.00 0.00 65 1013.2
20260906103531 76 0 0.0 0.0 0.00 0.00 0.00 65 1013.2
20260906103104 76 0 0.0 0.0 0.00 0.00 0.00 65 1013.2
20260906102532 76 0 0.0 0.0 0.00 0.00 0.00 65 1013.2
20260906102032 76 0 0.0 0.0 0.00 0.00 0.00 65 1013.1
20260906101550 76 0 0.0 0.0 0.00 0.00 0.00 65 1013.1
20260906101030 76 0 0.0 0.0 0.00 0.00 0.00 65 1013.0
20260906100529 76 0 0.0 0.0 0.00 0.00 0.00 65 1012.8
20260906100055 76 0 0.0 0.0 0.00 0.00 0.00 64 1012.8
20260906095531 76 0 0.0 0.0 0.00 0.00 0.00 64 1012.8
20260906095029 76 0 0.0 0.0 0.00 0.00 0.00 64 1012.7
20260906094553 77 0 0.0 0.0 0.00 0.00 0.00 64 1012.8
20260906094028 77 0 0.0 0.0 0.00 0.00 0.00 64 1012.7
20260906093530 77 0 0.0 0.0 0.00 0.00 0.00 64 1012.6
20260906093116 77 0 0.0 0.0 0.00 0.00 0.00 64 1012.5
20260906092530 77 0 0.0 0.0 0.00 0.00 0.00 64 1012.4
20260906092029 77 0 0.0 0.0 0.00 0.00 0.00 64 1012.4
20260906091556 77 0 0.0 0.0 0.00 0.00 0.00 64 1012.5
20260906091031 77 0 0.0 0.0 0.00 0.00 0.00 64 1012.5
20260906090531 77 0 0.0 0.0 0.00 0.00 0.00 64 1012.5
20260906090052 77 0 0.0 0.0 0.00 0.00 0.00 64 1012.5
20260906085529 77 0 0.0 0.0 0.00 0.00 0.00 64 1012.5
20260906085029 77 0 0.0 0.0 0.00 0.00 0.00 63 1012.4
20260906084550 77 0 0.0 0.0 0.00 0.00 0.00 64 1012.4
20260906084031 77 0 0.0 0.0 0.00 0.00 0.00 64 1012.4
20260906083534 77 0 0.0 0.0 0.00 0.00 0.00 64 1012.4
20260906083058 78 0 0.0 0.0 0.00 0.00 0.00 64 1012.5
20260906082531 78 0 0.0 0.0 0.00 0.00 0.00 63 1012.5
20260906082029 78 0 0.0 0.0 0.00 0.00 0.00 63 1012.6
20260906081553 78 0 0.0 0.0 0.00 0.00 0.00 63 1012.7
20260906081029 78 0 0.0 0.0 0.00 0.00 0.00 63 1012.6
20260906080530 78 0 0.0 0.0 0.00 0.00 0.00 63 1012.6
20260906080051 78 0 0.0 0.0 0.00 0.00 0.00 63 1012.5
20260906075527 79 0 0.0 0.0 0.00 0.00 0.00 62 1012.6
20260906075028 79 0 0.0 0.0 0.00 0.00 0.00 62 1012.5
20260906074551 79 0 0.0 0.0 0.00 0.00 0.00 62 1012.5
20260906074031 79 0 0.0 0.0 0.00 0.00 0.00 63 1012.5
20260906073529 79 0 0.0 0.0 0.00 0.00 0.00 62 1012.5
20260906073056 79 0 0.0 0.0 0.00 0.00 0.00 62 1012.5
20260906072529 79 0 0.0 0.0 0.00 0.00 0.00 62 1012.5
20260906072030 79 0 0.0 0.0 0.00 0.00 0.00 62 1012.7
20260906071550 79 0 0.0 0.0 0.00 0.00 0.00 62 1012.9
20260906071029 80 0 0.0 0.0 0.00 0.00 0.00 62 1012.9
20260906070528 80 0 0.0 0.0 0.00 0.00 0.00 62 1013.0
20260906070046 80 0 0.0 0.0 0.00 0.00 0.00 62 1013.2
20260906065529 80 0 0.0 0.0 0.00 0.00 0.00 62 1013.3
20260906065029 80 0 0.0 0.0 0.00 0.00 0.00 62 1013.2
20260906064552 80 0 0.0 0.0 0.00 0.00 0.00 62 1013.2
20260906064029 80 0 0.0 0.0 0.00 0.00 0.00 62 1013.3
20260906063528 80 0 0.0 0.0 0.00 0.00 0.00 61 1013.3
20260906063053 80 0 0.0 0.0 0.00 0.00 0.00 61 1013.4
20260906062528 80 0 0.0 0.0 0.00 0.00 0.00 61 1013.4
20260906062029 81 0 0.0 0.0 0.00 0.00 0.00 61 1013.5
20260906061556 81 0 0.0 0.0 0.00 0.00 0.00 61 1013.5
20260906061025 81 0 0.0 0.0 0.00 0.00 0.00 61 1013.4
20260906060529 81 0 0.0 0.0 0.00 0.00 0.00 61 1013.4
20260906060047 81 0 0.0 0.0 0.00 0.00 0.00 61 1013.4
20260906055529 81 0 0.0 0.0 0.00 0.00 0.00 60 1013.4
20260906055030 81 0 0.0 0.0 0.00 0.00 0.00 60 1013.3
20260906054604 82 0 0.0 0.0 0.00 0.00 0.00 60 1013.4
20260906054029 82 0 0.0 0.0 0.00 0.00 0.00 60 1013.3
20260906053529 82 0 0.0 0.0 0.00 0.00 0.00 60 1013.2
20260906053054 82 0 0.0 0.0 0.00 0.00 0.00 59 1013.2
20260906052529 82 0 0.0 0.0 0.00 0.00 0.00 59 1013.2
20260906052029 82 0 0.0 0.0 0.00 0.00 0.00 59 1013.1
20260906051549 82 0 0.0 0.0 0.00 0.00 0.00 59 1013.1
20260906051029 82 0 0.0 0.0 0.00 0.00 0.00 59 1013.0
20260906050529 82 0 0.0 0.0 0.00 0.00 0.00 59 1013.0
20260906050121 82 0 0.0 0.0 0.00 0.00 0.00 59 1013.1
20260906045529 82 0 0.0 0.0 0.00 0.00 0.00 59 1013.1
20260906045032 82 0 0.0 0.0 0.00 0.00 0.00 59 1013.2
20260906044553 83 0 0.0 0.0 0.00 0.00 0.00 59 1013.2
20260906044028 83 0 0.0 0.0 0.00 0.00 0.00 58 1013.1
20260906043529 83 0 0.0 0.0 0.00 0.00 0.00 58 1013.0
20260906043058 83 0 0.0 0.0 0.00 0.00 0.00 58 1013.1
20260906042530 83 0 0.0 0.0 0.00 0.00 0.00 58 1013.2
20260906042029 83 0 0.0 0.0 0.00 0.00 0.00 57 1013.1
20260906041558 83 0 0.0 0.0 0.00 0.00 0.00 57 1013.2
20260906041028 84 0 0.0 0.0 0.00 0.00 0.00 57 1013.2
20260906040529 84 0 0.0 0.0 0.00 0.00 0.00 57 1013.0
20260906040105 84 0 0.0 0.0 0.00 0.00 0.00 57 1012.9
20260906035528 84 0 0.0 0.0 0.00 0.00 0.00 57 1012.8
20260906035029 84 0 0.0 0.0 0.00 0.00 0.00 56 1012.9
20260906034556 84 0 0.0 0.0 0.00 0.00 0.00 56 1012.9
20260906034029 84 0 0.0 0.0 0.00 0.00 0.00 56 1012.9
20260906033529 85 0 0.0 0.0 0.00 0.00 0.00 56 1013.0
20260906033100 85 0 0.0 0.0 0.00 0.00 0.00 56 1013.0
20260906032533 85 0 0.0 0.0 0.00 0.00 0.00 56 1013.0
20260906032029 85 0 0.0 0.0 0.00 0.00 0.00 55 1012.9
20260906031600 85 0 0.0 0.0 0.00 0.00 0.00 55 1013.0
20260906031029 85 0 0.0 0.0 0.00 0.00 0.00 55 1013.0
20260906030531 86 0 0.0 0.0 0.00 0.00 0.00 55 1013.0
20260906030053 86 0 0.0 0.0 0.00 0.00 0.00 54 1012.9
20260906025531 86 0 0.0 0.0 0.00 0.00 0.00 54 1012.9
20260906025029 86 0 0.0 0.0 0.00 0.00 0.00 54 1012.9
20260906024550 86 0 0.0 0.0 0.00 0.00 0.00 54 1012.9
20260906024033 86 0 0.0 0.0 0.00 0.00 0.00 53 1012.8
20260906023533 86 0 0.0 0.0 0.00 0.00 0.00 53 1012.8
20260906023100 87 0 0.0 0.0 0.00 0.00 0.00 53 1012.6
20260906022529 87 0 0.0 0.0 0.00 0.00 0.00 53 1012.5
20260906022029 87 0 0.0 0.0 0.00 0.00 0.00 52 1012.3
20260906021559 87 0 0.0 0.0 0.00 0.00 0.00 52 1012.3
20260906021031 87 0 0.0 0.0 0.00 0.00 0.00 52 1012.2
20260906020529 87 0 0.0 0.0 0.00 0.00 0.00 51 1012.2
20260906020057 88 0 0.0 0.0 0.00 0.00 0.00 51 1012.1
20260906015528 88 0 0.0 0.0 0.00 0.00 0.00 51 1012.0
20260906015029 88 0 0.0 0.0 0.00 0.00 0.00 50 1012.1
20260906014555 88 0 0.0 0.0 0.00 0.00 0.00 50 1011.9
20260906014029 88 0 0.0 0.0 0.00 0.00 0.00 50 1011.9
20260906013529 88 0 0.0 0.0 0.00 0.00 0.00 49 1011.8
20260906013052 89 0 0.0 0.0 0.00 0.00 0.00 49 1011.7
20260906012531 89 0 0.0 0.0 0.00 0.00 0.00 49 1011.6
20260906012029 89 0 0.0 0.0 0.00 0.00 0.00 48 1011.6
20260906011557 89 0 0.0 0.0 0.00 0.00 0.00 48 1011.6
20260906011030 90 0 0.0 0.0 0.00 0.00 0.00 47 1011.6
20260906010531 90 0 0.0 0.0 0.00 0.00 0.00 46 1011.7
20260906005529 91 0 0.0 0.0 0.00 0.00 0.00 45 1011.6
20260906005029 92 0 0.0 0.0 0.00 0.00 0.00 44 1011.7
20260906004556 93 0 0.0 0.0 0.00 0.00 0.00 42 1011.6
20260906004029 94 0 0.0 0.0 0.00 0.00 0.00 40 1011.5
20260906003529 95 0 0.0 0.0 0.00 0.00 0.00 38 1011.5
20260906003052 96 0 0.0 0.0 0.00 0.00 0.00 36 1011.6
20260906002528 96 0 0.0 0.0 0.00 0.00 0.00 33 1011.3
20260906002030 97 0 0.0 0.0 0.00 0.00 0.00 33 1011.1
20260906001600 97 0 0.0 0.0 0.00 0.00 0.00 33 1011.1
20260906001028 97 0 0.0 0.0 0.00 0.00 0.00 32 1011.0
20260906000529 98 0 0.0 0.0 0.00 0.00 0.00 32 1011.0
20260906000059 98 0 0.0 0.0 0.00 0.00 0.00 31 1010.9
20260905235530 98 0 0.0 0.0 0.00 0.00 0.00 31 1011.0
20260905235032 98 0 0.0 0.0 0.00 0.00 0.00 31 1010.9
20260905234610 99 0 0.0 0.0 0.00 0.00 0.00 31 1010.9
20260905234029 99 0 0.0 0.0 0.00 0.00 0.00 30 1010.8
20260905233532 100 0 0.0 0.0 0.00 0.00 0.00 29 1010.8
20260905233050 100 0 0.0 0.0 0.00 0.00 0.00 29 1010.8
20260905232530 100 0 0.0 0.0 0.00 0.00 0.00 30 1010.9
20260905232032 100 0 0.0 0.0 0.00 0.00 0.00 29 1010.9
20260905231557 101 0 0.0 0.0 0.00 0.00 0.00 29 1010.9
20260905231032 102 0 0.0 0.0 0.00 0.00 0.00 28 1010.9
20260905230529 103 0 0.0 0.0 0.00 0.00 0.00 26 1010.9
20260905230123 104 0 0.0 0.0 0.00 0.00 0.00 25 1010.9
20260905225533 106 0 0.0 0.0 0.00 0.00 0.00 24 1010.8
20260905225029 108 0 0.0 0.0 0.00 0.00 0.00 23 1010.7
20260905224549 109 0 0.0 0.0 0.00 0.00 0.00 21 1010.7
20260905224032 109 0 0.0 0.0 0.00 0.00 0.00 22 1010.6
20260905223529 109 0 0.0 0.0 0.00 0.00 0.00 22 1010.7
20260905223057 109 0 0.0 0.0 0.00 0.00 0.00 20 1010.6
20260905222532 109 0 0.0 0.0 0.00 0.00 0.00 20 1010.6
20260905222033 108 0 0.0 0.0 0.00 0.00 0.00 23 1010.7
20260905221554 108 0 0.0 0.0 0.00 0.00 0.00 23 1010.6
20260905221030 109 0 0.0 0.0 0.00 0.00 0.00 21 1010.7
20260905220529 109 0 0.0 0.0 0.00 0.00 0.00 23 1010.7
20260905220048 108 0 0.0 0.0 0.00 0.00 0.00 23 1010.8
20260905215529 107 0 0.0 0.0 0.00 0.00 0.00 24 1010.7
20260905215029 106 0 0.0 0.0 0.00 0.00 0.00 26 1010.8
20260905214553 105 0 0.0 0.0 0.00 0.00 0.00 27 1010.9
20260905214029 104 0 0.0 0.0 0.00 0.00 0.00 23 1010.9
20260905213531 103 0 0.0 0.0 0.00 0.00 0.00 25 1011.0
20260905213049 102 0 0.0 0.0 0.00 0.00 0.00 25 1011.1
20260905212530 102 0 0.0 0.0 0.00 0.00 0.00 27 1011.3
20260905212029 103 0 0.0 0.0 0.00 0.00 0.00 26 1011.3
20260905211604 104 0 0.0 0.0 0.00 0.00 0.00 24 1011.3
20260905211029 105 0 0.0 0.0 0.00 0.00 0.00 24 1011.4
20260905210529 105 0 0.0 0.0 0.00 0.00 0.00 25 1011.4
20260905210058 105 0 0.0 0.0 0.00 0.00 0.00 23 1011.4
20260905205529 105 0 0.0 0.0 0.00 0.00 0.00 26 1011.5
20260905205029 105 0 0.0 0.0 0.00 0.00 0.00 23 1011.6
20260905204551 105 0 0.0 0.0 0.00 0.00 0.00 25 1011.6
20260905204029 105 0 0.0 0.0 0.00 0.00 0.00 25 1011.7
20260905203529 104 0 0.0 0.0 0.00 0.00 0.00 27 1011.7
20260905203103 103 0 0.0 0.0 0.00 0.00 0.00 25 1011.9
20260905202531 102 0 0.0 0.0 0.00 0.00 0.00 28 1011.9
20260905202028 102 0 0.0 0.0 0.00 0.00 0.00 30 1011.9
20260905201559 102 0 0.0 0.0 0.00 0.00 0.00 28 1012.1
20260905201029 102 0 0.0 0.0 0.00 0.00 0.00 28 1012.2